Погода в Кривых Озерах

Россия / Архангельская область     64°53′00″N   43°14′16″E
темп.,
°C
ветер,
м/с
пор.,
м/с
влажн.,
%
обл.,
%
осадки,
мм/ч
давл.,
гПа
погр.,
м
13 июня, вс
вс1300:00+17ю244613 0.0 101061
03:00+14ююв265552 0.0 1010121
06:00+19ю494858 0.0 1008376
09:00+24ю563437 0.0 10082393
12:00+26ю462570 0.0 10073102
15:00+26ююз47275 0.0 10062913
18:00+26ююз5732100 0.0 10042121
21:00+21ю3952100 0.0 1005409
14 июня, пн
пн1400:00+16ю31087100 0.3 1004287
03:00+16ю410905 0.3 1004379
06:00+18зюз477641 0.1 1004682
09:00+16зсз4676100 0.1 1005789
12:00+12з3792100 1.6 1008557
15:00+18зсз265598 1.9 10081773
18:00+19з563745 0.1 10081883
21:00+15зюз3747100 0.1 1010206
15 июня, вт
вт1500:00+11зюз235916 0.0 101152
03:00+10ююз266923 0.0 1011136
06:00+15ююз3749100 0.0 1011371
09:00+20ююз593473 0.0 10091555
12:00+23ююз6930100 0.0 10071882
15:00+24ююз61130100 0.0 10042200
18:00+22ююз51232100 0.0 10032132
21:00+20ююз51143100 0.0 10021057
16 июня, ср
ср1600:00+17з5956100 0.0 10031068
03:00+11юз277559 0.0 1005226
06:00+14з4759100 0.0 1006771
09:00+17зсз354577 0.0 10071602
12:00+17ссз3442100 0.1 10071720
15:00+19ссв153893 0.1 10072329
18:00+16всв1253100 0.4 1009915
21:00+12св475562 0.4 1011413
17 июня, чт
чт1700:00+7св226841 0.0 101237
03:00+8в116847 0.0 101457
06:00+11ю236075 0.0 1015424
09:00+16з364012 0.0 10151985
12:00+17з583688 0.0 10162349
15:00+18сз483028 0.0 10182620
18:00+18зсз55299 0.0 10192335
21:00+14зюз254468 0.0 1020108